NOAA NWS Hourly Roundups by Site

Regional Weather Roundup for Green Bay, WI

To Select Another Site Choose from List

Select Site:  

000
ASUS43 KGRB 252111
RWRGRB

NORTH-CENTRAL AND NORTHEAST WISCONSIN REGIONAL WEATHER ROUNDUP
NATIONAL WEATHER SERVICE GREEN BAY WI
400 PM CDT SAT MAY 25 2019

WIZ005-009-010>012-018-019-252200-
NORTH CENTRAL WISCONSIN

CITY           SKY/WX    TMP DP  RH WIND       PRES   REMARKS
IRONWOOD       PTSUNNY   66  47  50 W13G22    29.81R
MANITOWISH WTR PTSUNNY   68  46  44 W10G22    29.81R
ARBOR VITAE    FAIR      72  46  38 W13G24    29.80R
EAGLE RIVER    FAIR      73  40  29 W18G26    29.77R
LAND O LAKES   PTSUNNY   73  40  30 NW13G18   29.80R
RHINELANDER    FAIR      78  42  27 W23G38    29.79R
PHILLIPS       PTSUNNY   69  47  45 W9G20     29.82R
ANTIGO         FAIR      75  46  35 W23G30    29.81R
TOMAHAWK       FAIR      73  42  32 W21G30    29.82R
MERRILL        FAIR      76  48  36 W20G25    29.81R
$$

WIZ013-073-252200-
NORTHEAST WISCONSIN

CITY           SKY/WX    TMP DP  RH WIND       PRES   REMARKS
IRON MOUNTAIN  FAIR      81  38  21 W21G36    29.70R
MARINETTE      FAIR      83  51  33 W10G28    29.73R
OCONTO         FAIR      83  51  33 W18G30    29.74S
$$

WIZ017-030-035>037-045-252200-
CENTRAL WISCONSIN

CITY           SKY/WX    TMP DP  RH WIND       PRES   REMARKS
MEDFORD        FAIR      70  49  46 W17G23    29.84R
WAUSAU         FAIR      77  43  29 W21G35    29.80R
MOSINEE        MOSUNNY   77  45  31 SW24G32   29.83R
MARSHFIELD     FAIR      77  46  33 W18G30    29.83R
WISC RAPIDS    FAIR      81  48  31 W17G26    29.84R
STEVENS POINT  FAIR      78  45  31 W22G29    29.83S
WAUPACA        FAIR      83  49  29 W23G32    29.81S
SHAWANO        FAIR      84  47  27 W16G31    29.77S
CLINTONVILLE   FAIR      82  46  27 W18G30    29.79R
WAUTOMA        PTSUNNY   81  57  43 W20G25    29.82S
$$

WIZ038-039-048-051-252200-
FOX VALLEY

CITY           SKY/WX    TMP DP  RH WIND       PRES   REMARKS
NWS GREEN BAY  FAIR      83  54  36 W22G39    29.78S
APPLETON       MOSUNNY   82  45  26 W20G28    29.79S
OSHKOSH        FAIR      80  58  46 SW12G25   29.81S
FOND DU LAC    FAIR      82  59  45 SW20G32   29.83S
$$

WIZ022-050-052-252200-
EAST CENTRAL WISCONSIN

CITY           SKY/WX    TMP DP  RH WIND       PRES   REMARKS
EPHRAIM        FAIR      79  55  43 SW13G24   29.73S
WASHINGTON ISL FAIR      71  56  59 S10G18    29.70F
STURGEON BAY   FAIR      82  57  42 SW17G28   29.76S
MANITOWOC      PTSUNNY   81  63  54 SW21      29.80S
SHEBOYGAN      FAIR      81  62  52 SW23G33   29.83S
$$

LMZ563-521-522-541>543-252200-
LAKESHORE

STATION/POSITION TIME  TEMP    WIND        PRES    VSBY  WAVE
                       AIR SEA DIR/SP/G                  HT/PER
                 (UTC) (F)     (DEG/KT/KT) (MB)    (MI)  (FT/S)
SHEBOYGAN LKSHOR 2100   79     210/ 20/ 23 1009.3F
KEWAUNEE LKSHORE 2048   81     240/ 12/ 21 1007.8R
NORTHPORT PIER   2040          200/  5/ 11 1006.1S
N MID LAKE BUOY  2050   45 37  190/ 16/ 19 1005.6F         3/ 4
SISTER BAY LKSHO 2058   79     240/ 17/ 22   N/A
CHAMBERS ISLAND  2040   77     200/ 11/ 21 1005.8S
MENOMINEE LKSHOR 2048   81 54  240/ 21/ 29 1006.6R
$$


 

View Past Reports for Green Bay, WI.

Products Courtesy of NOAA-NWS
NWS Information Parsing Script by Ken True at Saratoga Weather - Script by SE Lincoln Weather.